Location: Staunton
(38.1490°N, 79.0720°W)
Time: 14:46:54
(UTC-04:00)

ISS - Pass Details

Date: 19 July 2019
Orbit: 409 x 418 km, 51.6° (Epoch: 20 July)

Event Time Altitude Azimuth Distance (km) Brightness Sun altitude
Rises 04:05:55 0° 311° (NW) 2,342 0.1 -19.6°
Reaches altitude 10° 04:08:01 10° 314° (NW) 1,476 -1.0 -19.4°
Maximum altitude 04:11:19 68° 38° (NE) 443 -3.5 -18.9°
Drops below altitude 10° 04:14:35 10° 122° (ESE) 1,465 -0.9 -18.5°
Sets 04:16:40 0° 125° (SE) 2,322 0.1 -18.2°
